[TLELIST] Archives

 

[list_settings.list_name] Current TLEs

August 25th 2021 PST

HST 1 20580U 90037B 21236.67795811 .00000583 00000-0 24285-4 0 9993 2 20580 28.4708 333.6368 0002924 78.3787 37.1094 15.09711225521314 ISS (ZARYA) 1 25544U 98067A 21237.38973297 .00001768 00000-0 40876-4 0 9994 2 25544 51.6460 0.5085 0002745 311.1101 88.9633 15.48514705299320 CXO 1 25867U 99040B 21239.51390295 .00000463 00000-0 00000-0 0 9994 2 25867 53.3848 252.2626 8430381 226.9263 0.6259 0.37804393 10700 ____________________________________________________________________ These 2-Line ...Continue Reading

[list_settings.list_name] Current TLEs

August 24th 2021 PST

HST 1 20580U 90037B 21235.75570616 .00000563 00000-0 23045-4 0 9996 2 20580 28.4709 339.7393 0002913 69.1707 63.9795 15.09710459521175 ISS (ZARYA) 1 25544U 98067A 21236.23088793 .00001584 00000-0 37499-4 0 9998 2 25544 51.6457 6.2366 0002787 307.4395 108.2221 15.48508851299144 CXO 1 25867U 99040B 21236.87031049 .00000457 00000-0 00000-0 0 9992 2 25867 53.4249 252.3479 8424126 226.9202 0.7418 0.37804502 10706 ____________________________________________________________________ These 2-Line ...Continue Reading

[list_settings.list_name] Current TLEs

August 23rd 2021 PST

HST 1 20580U 90037B 21234.69341718 .00000580 00000-0 24110-4 0 9990 2 20580 28.4709 346.7686 0002895 58.6027 49.6081 15.09709791521014 ISS (ZARYA) 1 25544U 98067A 21235.19905397 .00001179 00000-0 30012-4 0 9994 2 25544 51.6451 11.3372 0002756 302.8047 116.9734 15.48503350298986 CXO 1 25867U 99040B 21236.87031049 .00000457 00000-0 00000-0 0 9992 2 25867 53.4249 252.3479 8424126 226.9202 0.7418 0.37804502 10706 ____________________________________________________________________ These 2-Line ...Continue Reading

[list_settings.list_name] Current TLEs

August 22nd 2021 PST

HST 1 20580U 90037B 21234.04245522 .00000589 00000-0 24605-4 0 9993 2 20580 28.4710 351.0761 0002888 51.8140 111.4350 15.09709379521189 ISS (ZARYA) 1 25544U 98067A 21234.15347222 -.00001305 00000-0 -15855-4 0 9997 2 25544 51.6448 16.5073 0002669 299.7348 47.4890 15.48497532298815 CXO 1 25867U 99040B 21234.22544053 .00000499 00000-0 00000-0 0 9999 2 25867 53.4572 252.4314 8419231 226.9238 0.6366 0.37808494 10686 ____________________________________________________________________ These 2-Line ...Continue Reading

[list_settings.list_name] Current TLEs

August 21st 2021 PST

HST 1 20580U 90037B 21232.77857469 .00000518 00000-0 20316-4 0 9997 2 20580 28.4710 359.4394 0002853 39.0867 81.4141 15.09708000520722 ISS (ZARYA) 1 25544U 98067A 21233.38619970 -.00069779 00000-0 -12925-2 0 9995 2 25544 51.6444 20.2959 0003205 301.6814 85.4926 15.48492423298708 CXO 1 25867U 99040B 21234.22544053 .00000499 00000-0 00000-0 0 9999 2 25867 53.4572 252.4314 8419231 226.9238 0.6366 0.37808494 10686 ____________________________________________________________________ These 2-Line ...Continue Reading

[list_settings.list_name] Current TLEs

August 20th 2021 PST

HST 1 20580U 90037B 21231.78629861 .00000546 00000-0 22038-4 0 9994 2 20580 28.4710 6.0053 0002820 28.8795 87.9612 15.09707476520572 ISS (ZARYA) 1 25544U 98067A 21232.36426600 .00001185 00000-0 29725-4 0 9991 2 25544 51.6443 25.3494 0001519 335.9926 109.3107 15.48920390298545 CXO 1 25867U 99040B 21234.22544053 .00000499 00000-0 00000-0 0 9999 2 25867 53.4572 252.4314 8419231 226.9238 0.6366 0.37808494 10686 ____________________________________________________________________ These 2-Line ...Continue Reading

[list_settings.list_name] Current TLEs

August 19th 2021 PST

HST 1 20580U 90037B 21230.79403400 .00000533 00000-0 21260-4 0 9995 2 20580 28.4710 12.5713 0002787 18.5572 94.6881 15.09706728520424 ISS (ZARYA) 1 25544U 98067A 21230.88636081 .00001147 00000-0 29037-4 0 9996 2 25544 51.6441 32.6603 0001423 328.2691 150.6402 15.48915226298318 CXO 1 25867U 99040B 21234.22496054 .00000499 00000-0 00000+0 0 9995 2 25867 53.4573 252.4314 8419231 226.9238 0.5708 0.37808650 21828 ____________________________________________________________________ These 2-Line ...Continue Reading

[list_settings.list_name] Current TLEs

August 18th 2021 PST

HST 1 20580U 90037B 21229.87177465 .00000532 00000-0 21190-4 0 9992 2 20580 28.4710 18.6739 0002755 8.7933 122.0882 15.09706112520554 ISS (ZARYA) 1 25544U 98067A 21229.98800795 .00001465 00000-0 34810-4 0 9998 2 25544 51.6442 37.1023 0001388 321.2866 185.0257 15.48913679298176 CXO 1 25867U 99040B 21231.58220241 .00000494 00000-0 00000-0 0 9990 2 25867 53.5238 252.5496 8414950 226.9096 0.7466 0.37807138 10689 ____________________________________________________________________ These 2-Line ...Continue Reading

[list_settings.list_name] Current TLEs

August 17th 2021 PST

HST 1 20580U 90037B 21228.80970697 .00000525 00000-0 20764-4 0 9990 2 20580 28.4709 25.7018 0002710 357.3620 109.8012 15.09705349520388 ISS (ZARYA) 1 25544U 98067A 21229.39494074 .00001506 00000-0 35572-4 0 9994 2 25544 51.6449 40.0350 0001355 317.8430 119.2973 15.48911936298089 CXO 1 25867U 99040B 21228.93848529 .00000475 00000-0 00000-0 0 9999 2 25867 53.5907 252.6538 8409975 226.9158 0.7837 0.37803521 10662 ____________________________________________________________________ These 2-Line ...Continue Reading

[list_settings.list_name] Current TLEs

August 16th 2021 PST

HST 1 20580U 90037B 21227.88725138 .00000501 00000-0 19331-4 0 9997 2 20580 28.4709 31.8057 0002668 347.2397 136.4952 15.09704612519985 ISS (ZARYA) 1 25544U 98067A 21228.36098179 .00001101 00000-0 28207-4 0 9994 2 25544 51.6447 45.1483 0001367 311.9966 115.9020 15.48906255297928 CXO 1 25867U 99040B 21228.93848529 .00000475 00000-0 00000-0 0 9999 2 25867 53.5907 252.6538 8409975 226.9158 0.7837 0.37803521 10662 ____________________________________________________________________ These 2-Line ...Continue Reading
  • This mailing list is a public mailing list - anyone may join or leave, at any time.
  • This mailing list is announce-only.

International Space Station (ISS) / Hubble Space Telescope (HST) / Chandra X-Ray Observatory Orbital Data via EMAIL

Privacy Policy:

Private list